TimeCDT,TemperatureF,Dew PointF,Humidity,Sea Level PressureIn,VisibilityMPH,Wind Direction,Wind SpeedMPH,Gust SpeedMPH,PrecipitationIn,Events,Conditions,WindDirDegrees,DateUTC
12:53 AM,79.0,73.0,82,30.06,10.0,South,4.6,-,N/A,,Clear,190,2013-07-10 05:53:00
1:53 AM,78.1,73.9,87,30.06,10.0,SSW,4.6,-,N/A,,Clear,200,2013-07-10 06:53:00
2:53 AM,78.1,73.9,87,30.07,10.0,SSW,5.8,-,N/A,,Clear,200,2013-07-10 07:53:00
3:53 AM,78.1,73.9,87,30.08,10.0,SSW,4.6,-,N/A,,Clear,200,2013-07-10 08:53:00
4:53 AM,77.0,73.9,90,30.07,10.0,SW,6.9,-,N/A,,Clear,230,2013-07-10 09:53:00
5:53 AM,77.0,73.9,90,30.08,10.0,SSW,3.5,-,N/A,,Clear,200,2013-07-10 10:53:00
6:53 AM,77.0,73.9,90,30.08,10.0,WSW,6.9,-,N/A,,Clear,240,2013-07-10 11:53:00
7:53 AM,80.1,73.9,81,30.09,10.0,WSW,9.2,-,N/A,,Clear,240,2013-07-10 12:53:00
8:53 AM,82.9,73.9,74,30.09,10.0,WSW,9.2,-,N/A,,Clear,240,2013-07-10 13:53:00
9:53 AM,86.0,73.9,67,30.10,10.0,West,9.2,-,N/A,,Scattered Clouds,260,2013-07-10 14:53:00
10:53 AM,89.1,73.0,59,30.09,10.0,West,6.9,-,N/A,,Clear,260,2013-07-10 15:53:00
11:53 AM,88.0,73.0,61,30.09,10.0,West,5.8,-,N/A,,Overcast,270,2013-07-10 16:53:00
12:53 PM,91.9,75.0,58,30.06,10.0,SW,10.4,-,N/A,,Mostly Cloudy,220,2013-07-10 17:53:00
1:53 PM,91.9,73.9,55,30.04,10.0,West,8.1,-,N/A,,Clear,270,2013-07-10 18:53:00
2:53 PM,93.0,73.0,52,30.01,10.0,Calm,Calm,-,N/A,,Clear,0,2013-07-10 19:53:00
3:53 PM,93.0,72.0,50,29.99,10.0,West,5.8,-,N/A,,Mostly Cloudy,280,2013-07-10 20:53:00
4:53 PM,95.0,71.1,46,29.96,10.0,SW,6.9,-,N/A,,Clear,220,2013-07-10 21:53:00
5:53 PM,93.9,72.0,49,29.94,10.0,Calm,Calm,-,N/A,,Mostly Cloudy,0,2013-07-10 22:53:00
6:53 PM,91.0,73.9,57,29.95,10.0,SSE,4.6,-,N/A,,Scattered Clouds,150,2013-07-10 23:53:00
7:53 PM,89.1,75.0,63,29.95,10.0,South,6.9,-,N/A,,Mostly Cloudy,170,2013-07-11 00:53:00
8:53 PM,84.9,73.9,69,29.96,10.0,South,4.6,-,N/A,,Clear,170,2013-07-11 01:53:00
9:53 PM,82.0,73.9,76,29.96,10.0,South,4.6,-,N/A,,Clear,170,2013-07-11 02:53:00
10:53 PM,81.0,73.9,79,29.97,10.0,Calm,Calm,-,N/A,,Clear,0,2013-07-11 03:53:00
11:53 PM,79.0,75.0,88,29.96,10.0,Calm,Calm,-,N/A,,Clear,0,2013-07-11 04:53:00